Date,TemperatureHighF,TemperatureAvgF,TemperatureLowF,DewpointHighF,DewpointAvgF,DewpointLowF,HumidityHigh,HumidityAvg,HumidityLow,PressureMaxIn,PressureMinIn,WindSpeedMaxMPH,WindSpeedAvgMPH,GustSpeedMaxMPH,PrecipitationSumIn
2013-2-1,2.6,-3.8,-12.5,-3.7,-14.3,-21.5,75,60,43,30.33,30.06,12,2,12,0.00
2013-2-2,11.9,5.8,0.1,4.5,-2.7,-7.7,79,68,53,30.18,29.96,7,1,7,0.00
2013-2-3,12.6,9.5,3.4,4.8,1.3,-3.6,80,69,57,30.06,29.96,17,4,17,0.00
2013-2-4,14.9,10.1,2.8,9.3,-0.3,-6.8,81,63,50,30.05,29.71,11,1,11,0.00
2013-2-5,27.5,21.4,10.2,22.8,13.8,4.4,88,73,49,30.04,29.60,13,3,13,0.03
2013-2-6,25.1,16.2,7.0,20.1,11.0,2.4,83,80,74,30.07,29.91,10,2,10,0.00
2013-2-7,27.2,25.1,23.3,22.1,20.0,18.8,89,81,71,30.21,29.95,14,4,14,0.00
2013-2-8,26.7,21.6,12.3,18.9,12.5,7.3,83,68,51,30.34,30.18,13,3,13,0.01
2013-2-9,31.6,28.3,23.5,26.7,23.4,18.2,88,82,77,30.18,29.88,17,4,17,0.00
2013-2-10,32.7,30.1,27.3,31.2,27.3,23.4,94,89,82,29.88,29.22,17,4,17,0.08
2013-2-11,29.7,24.9,17.5,28.2,18.5,10.6,94,77,67,29.99,29.27,24,8,24,0.00
2013-2-12,35.3,24.4,13.6,21.7,16.1,8.0,82,71,54,30.00,29.75,18,2,18,0.21
2013-2-13,40.2,29.2,21.4,30.6,22.7,15.8,93,77,56,29.75,29.50,12,2,12,0.15
2013-2-14,32.2,25.7,14.4,30.4,17.0,-0.7,93,72,35,30.14,29.52,19,4,19,0.14
2013-2-15,17.0,11.3,5.0,2.9,-0.5,-3.7,71,59,44,30.28,30.14,14,5,14,0.00
2013-2-16,19.2,9.9,1.5,6.6,0.9,-4.8,77,67,50,30.24,30.09,7,1,7,0.00
2013-2-17,31.2,21.2,7.9,19.3,11.8,1.5,75,67,57,30.09,29.57,16,5,16,0.00
2013-2-18,32.7,23.4,9.2,28.4,16.1,0.5,84,73,65,29.76,29.45,22,6,22,0.00
2013-2-19,9.2,5.5,1.8,0.5,-6.6,-10.2,71,57,47,30.35,29.76,26,8,26,0.00
2013-2-20,16.4,6.2,-3.7,0.6,-5.1,-11.5,71,59,47,30.47,30.35,7,2,7,0.00
2013-2-21,21.9,14.2,3.7,13.7,3.6,-3.3,76,63,51,30.45,30.07,11,2,11,0.00
2013-2-22,28.7,23.3,19.7,20.6,17.6,13.5,86,79,66,30.07,29.81,10,2,10,0.11
2013-2-23,33.1,24.9,18.9,23.4,18.8,15.1,87,78,63,29.91,29.79,8,2,8,0.04
2013-2-24,35.6,24.8,12.3,21.1,16.0,8.1,86,70,53,30.05,29.91,7,1,7,0.00
2013-2-25,37.0,29.1,21.0,22.8,20.0,16.1,85,69,52,30.06,29.98,6,1,6,0.00
2013-2-26,36.0,26.7,15.6,25.9,20.2,12.2,87,77,63,30.00,29.82,14,3,14,0.00
2013-2-27,38.5,31.5,28.2,24.3,22.6,19.9,78,70,52,29.97,29.81,19,5,19,0.00
2013-2-28,30.3,28.0,23.5,21.2,18.3,13.8,72,67,61,30.18,29.97,13,4,13,0.00